Time,TemperatureF,DewpointF,PressureIn,WindDirection,WindDirectionDegrees,WindSpeedMPH,WindSpeedGustMPH,Humidity,HourlyPrecipIn,Conditions,Clouds,dailyrainin,SoftwareType,DateUTC
2013-03-05 00:11:00,31.1,22.0,30.02,NW,322,4.0,10.0,70,0.00,,,0.00,weatherlink.com 1.10,2013-03-05 05:11:00,
2013-03-05 00:26:00,31.2,22.0,30.01,NNW,343,1.0,13.0,70,0.00,,,0.00,weatherlink.com 1.10,2013-03-05 05:26:00,
2013-03-05 00:41:00,31.1,23.0,30.02,NNW,346,4.0,8.0,71,0.00,,,0.00,weatherlink.com 1.10,2013-03-05 05:41:00,
2013-03-05 00:56:00,31.2,22.0,30.01,NNW,342,3.0,9.0,70,0.00,,,0.00,weatherlink.com 1.10,2013-03-05 05:56:00,
2013-03-05 01:11:00,30.7,22.0,30.02,North,360,5.0,9.0,71,0.00,,,0.00,weatherlink.com 1.10,2013-03-05 06:11:00,
2013-03-05 01:26:00,30.7,23.0,30.02,NW,309,7.0,7.0,72,0.00,,,0.00,weatherlink.com 1.10,2013-03-05 06:26:00,
2013-03-05 01:41:00,30.8,23.0,30.03,NNW,332,0.0,6.0,72,0.00,,,0.00,weatherlink.com 1.10,2013-03-05 06:41:00,
2013-03-05 01:56:00,31.1,23.0,30.03,NNW,342,6.0,13.0,71,0.00,,,0.00,weatherlink.com 1.10,2013-03-05 06:56:00,
2013-03-05 02:11:00,31.1,23.0,30.03,NW,319,8.0,12.0,71,0.00,,,0.00,weatherlink.com 1.10,2013-03-05 07:11:00,
2013-03-05 02:26:00,31.0,23.0,30.02,NNW,348,4.0,10.0,72,0.00,,,0.00,weatherlink.com 1.10,2013-03-05 07:26:00,
2013-03-05 02:41:00,30.8,23.0,30.03,NNW,346,4.0,8.0,72,0.00,,,0.00,weatherlink.com 1.10,2013-03-05 07:41:00,
2013-03-05 02:56:00,30.8,23.0,30.03,NNW,336,3.0,10.0,72,0.00,,,0.00,weatherlink.com 1.10,2013-03-05 07:56:00,
2013-03-05 03:11:00,30.8,23.0,30.03,NNW,329,1.0,11.0,73,0.00,,,0.00,weatherlink.com 1.10,2013-03-05 08:11:00,
2013-03-05 03:26:00,30.7,23.0,30.04,NNW,341,4.0,8.0,73,0.00,,,0.00,weatherlink.com 1.10,2013-03-05 08:26:00,
2013-03-05 03:41:00,30.8,23.0,30.04,NW,315,5.0,7.0,73,0.00,,,0.00,weatherlink.com 1.10,2013-03-05 08:41:00,
2013-03-05 03:56:00,30.8,23.0,30.05,NNW,334,1.0,7.0,73,0.00,,,0.00,weatherlink.com 1.10,2013-03-05 08:56:00,
2013-03-05 04:11:00,30.7,23.0,30.05,NW,323,2.0,8.0,73,0.00,,,0.00,weatherlink.com 1.10,2013-03-05 09:11:00,
2013-03-05 04:26:00,30.7,23.0,30.05,North,360,2.0,9.0,73,0.00,,,0.00,weatherlink.com 1.10,2013-03-05 09:26:00,
2013-03-05 04:41:00,30.6,23.0,30.05,North,5,3.0,8.0,74,0.00,,,0.00,weatherlink.com 1.10,2013-03-05 09:41:00,
2013-03-05 04:57:00,30.5,23.0,30.05,NNW,346,4.0,9.0,74,0.00,,,0.00,weatherlink.com 1.10,2013-03-05 09:57:00,
2013-03-05 05:12:00,30.2,23.0,30.05,North,350,4.0,11.0,74,0.00,,,0.00,weatherlink.com 1.10,2013-03-05 10:12:00,
2013-03-05 05:27:00,29.9,23.0,30.05,NNW,348,4.0,10.0,75,0.00,,,0.00,weatherlink.com 1.10,2013-03-05 10:27:00,
2013-03-05 05:42:00,29.8,23.0,30.05,North,360,6.0,8.0,75,0.00,,,0.00,weatherlink.com 1.10,2013-03-05 10:42:00,
2013-03-05 05:57:00,29.9,23.0,30.05,North,350,1.0,8.0,75,0.00,,,0.00,weatherlink.com 1.10,2013-03-05 10:57:00,
2013-03-05 06:12:00,29.9,23.0,30.05,NNW,336,1.0,6.0,75,0.00,,,0.00,weatherlink.com 1.10,2013-03-05 11:12:00,
2013-03-05 06:27:00,29.7,23.0,30.06,NW,324,0.0,5.0,75,0.00,,,0.00,weatherlink.com 1.10,2013-03-05 11:27:00,
2013-03-05 06:42:00,29.6,23.0,30.06,NNE,30,1.0,6.0,76,0.00,,,0.00,weatherlink.com 1.10,2013-03-05 11:42:00,
2013-03-05 06:57:00,29.8,23.0,30.06,NW,310,2.0,4.0,76,0.00,,,0.00,weatherlink.com 1.10,2013-03-05 11:57:00,
2013-03-05 07:12:00,30.0,23.0,30.07,WNW,296,3.0,4.0,76,0.00,,,0.00,weatherlink.com 1.10,2013-03-05 12:12:00,
2013-03-05 07:27:00,30.3,24.0,30.07,NNW,343,1.0,5.0,76,0.00,,,0.00,weatherlink.com 1.10,2013-03-05 12:27:00,
2013-03-05 07:42:00,31.0,24.0,30.07,North,350,0.0,4.0,74,0.00,,,0.00,weatherlink.com 1.10,2013-03-05 12:42:00,
2013-03-05 07:57:00,30.9,24.0,30.06,North,9,2.0,6.0,75,0.00,,,0.00,weatherlink.com 1.10,2013-03-05 12:57:00,
2013-03-05 08:12:00,32.4,25.0,30.07,NNE,13,0.0,5.0,73,0.00,,,0.00,weatherlink.com 1.10,2013-03-05 13:12:00,
2013-03-05 08:27:00,32.5,24.0,30.07,NNW,338,1.0,9.0,72,0.00,,,0.00,weatherlink.com 1.10,2013-03-05 13:27:00,
2013-03-05 08:42:00,32.4,24.0,30.07,NNW,335,0.0,6.0,72,0.00,,,0.00,weatherlink.com 1.10,2013-03-05 13:42:00,
2013-03-05 08:57:00,33.1,25.0,30.07,NNW,342,3.0,8.0,73,0.00,,,0.00,weatherlink.com 1.10,2013-03-05 13:57:00,
2013-03-05 09:12:00,35.1,26.0,30.07,ENE,59,3.0,10.0,69,0.00,,,0.00,weatherlink.com 1.10,2013-03-05 14:12:00,
2013-03-05 09:27:00,35.7,27.0,30.06,NE,37,3.0,7.0,70,0.00,,,0.00,weatherlink.com 1.10,2013-03-05 14:27:00,
2013-03-05 09:42:00,35.4,25.0,30.06,North,360,3.0,10.0,67,0.00,,,0.00,weatherlink.com 1.10,2013-03-05 14:42:00,
2013-03-05 09:57:00,36.1,26.0,30.06,North,355,3.0,10.0,68,0.00,,,0.00,weatherlink.com 1.10,2013-03-05 14:57:00,
2013-03-05 10:12:00,35.9,26.0,30.05,North,355,5.0,5.0,67,0.00,,,0.00,weatherlink.com 1.10,2013-03-05 15:12:00,
2013-03-05 10:27:00,36.0,26.0,30.05,NNE,17,5.0,7.0,68,0.00,,,0.00,weatherlink.com 1.10,2013-03-05 15:27:00,
2013-03-05 10:42:00,38.2,27.0,30.04,NNW,343,2.0,8.0,65,0.00,,,0.00,weatherlink.com 1.10,2013-03-05 15:42:00,
2013-03-05 10:57:00,38.0,27.0,30.04,ENE,63,0.0,7.0,65,0.00,,,0.00,weatherlink.com 1.10,2013-03-05 15:57:00,
2013-03-05 11:12:00,38.8,27.0,30.04,ENE,78,2.0,8.0,64,0.00,,,0.00,weatherlink.com 1.10,2013-03-05 16:12:00,
2013-03-05 11:27:00,39.1,27.0,30.04,NE,36,1.0,8.0,63,0.00,,,0.00,weatherlink.com 1.10,2013-03-05 16:27:00,
2013-03-05 11:42:00,39.1,27.0,30.04,NNW,340,3.0,7.0,62,0.00,,,0.00,weatherlink.com 1.10,2013-03-05 16:42:00,
2013-03-05 11:57:00,39.3,26.0,30.04,ENE,66,0.0,5.0,60,0.00,,,0.00,weatherlink.com 1.10,2013-03-05 16:57:00,
2013-03-05 12:12:00,40.4,28.0,30.03,East,90,2.0,5.0,61,0.00,,,0.00,weatherlink.com 1.10,2013-03-05 17:12:00,
2013-03-05 12:27:00,40.7,27.0,30.03,North,5,0.0,7.0,58,0.00,,,0.00,weatherlink.com 1.10,2013-03-05 17:27:00,
2013-03-05 12:42:00,40.1,27.0,30.02,SE,132,0.0,5.0,59,0.00,,,0.00,weatherlink.com 1.10,2013-03-05 17:42:00,
2013-03-05 12:58:00,41.7,29.0,30.02,NW,321,4.0,5.0,62,0.00,,,0.00,weatherlink.com 1.10,2013-03-05 17:58:00,
2013-03-05 13:13:00,42.3,29.0,30.02,NNE,32,5.0,6.0,60,0.00,,,0.00,weatherlink.com 1.10,2013-03-05 18:13:00,
2013-03-05 13:28:00,42.8,28.0,30.01,SW,233,1.0,5.0,57,0.00,,,0.00,weatherlink.com 1.10,2013-03-05 18:28:00,
2013-03-05 13:43:00,43.9,29.0,30.01,West,277,0.0,5.0,56,0.00,,,0.00,weatherlink.com 1.10,2013-03-05 18:43:00,
2013-03-05 13:58:00,42.9,30.0,30.00,WSW,254,0.0,6.0,60,0.00,,,0.00,weatherlink.com 1.10,2013-03-05 18:58:00,
2013-03-05 14:13:00,43.2,30.0,30.00,West,276,0.0,8.0,59,0.00,,,0.00,weatherlink.com 1.10,2013-03-05 19:13:00,
2013-03-05 14:28:00,44.1,29.0,29.99,NNW,341,2.0,8.0,56,0.00,,,0.00,weatherlink.com 1.10,2013-03-05 19:28:00,
2013-03-05 14:43:00,44.0,29.0,29.98,NE,38,0.0,9.0,56,0.00,,,0.00,weatherlink.com 1.10,2013-03-05 19:43:00,
2013-03-05 14:58:00,44.4,29.0,29.98,SE,133,5.0,5.0,55,0.00,,,0.00,weatherlink.com 1.10,2013-03-05 19:58:00,
2013-03-05 15:13:00,44.8,29.0,29.97,ESE,111,3.0,8.0,55,0.00,,,0.00,weatherlink.com 1.10,2013-03-05 20:13:00,
2013-03-05 15:28:00,44.7,30.0,29.96,ESE,121,2.0,9.0,56,0.00,,,0.00,weatherlink.com 1.10,2013-03-05 20:28:00,
2013-03-05 15:43:00,44.6,29.0,29.96,ESE,120,5.0,9.0,55,0.00,,,0.00,weatherlink.com 1.10,2013-03-05 20:43:00,
2013-03-05 15:58:00,45.0,29.0,29.95,ESE,109,5.0,8.0,53,0.00,,,0.00,weatherlink.com 1.10,2013-03-05 20:58:00,
2013-03-05 16:13:00,44.8,28.0,29.95,East,88,5.0,8.0,53,0.00,,,0.00,weatherlink.com 1.10,2013-03-05 21:13:00,
2013-03-05 16:28:00,45.3,29.0,29.95,NE,34,3.0,4.0,54,0.00,,,0.00,weatherlink.com 1.10,2013-03-05 21:28:00,
2013-03-05 16:43:00,44.7,28.0,29.95,ENE,75,0.0,5.0,53,0.00,,,0.00,weatherlink.com 1.10,2013-03-05 21:43:00,
2013-03-05 16:58:00,44.5,29.0,29.95,East,95,3.0,8.0,54,0.00,,,0.00,weatherlink.com 1.10,2013-03-05 21:58:00,
2013-03-05 17:13:00,43.7,28.0,29.96,East,90,0.0,2.0,55,0.00,,,0.00,weatherlink.com 1.10,2013-03-05 22:13:00,
2013-03-05 17:28:00,43.4,28.0,29.96,ESE,105,0.0,4.0,56,0.00,,,0.00,weatherlink.com 1.10,2013-03-05 22:28:00,
2013-03-05 17:43:00,42.7,29.0,29.97,ESE,105,0.0,1.0,58,0.00,,,0.00,weatherlink.com 1.10,2013-03-05 22:43:00,
2013-03-05 17:58:00,41.3,29.0,29.97,ESE,105,0.0,0.0,62,0.00,,,0.00,weatherlink.com 1.10,2013-03-05 22:58:00,
2013-03-05 18:13:00,39.3,29.0,29.97,ESE,105,0.0,2.0,67,0.00,,,0.00,weatherlink.com 1.10,2013-03-05 23:13:00,
2013-03-05 18:28:00,37.1,29.0,29.98,ESE,105,0.0,2.0,72,0.00,,,0.00,weatherlink.com 1.10,2013-03-05 23:28:00,
2013-03-05 18:43:00,35.7,29.0,29.98,ESE,105,0.0,1.0,75,0.00,,,0.00,weatherlink.com 1.10,2013-03-05 23:43:00,
2013-03-05 18:58:00,34.2,28.0,29.97,ESE,105,1.0,2.0,78,0.00,,,0.00,weatherlink.com 1.10,2013-03-05 23:58:00,
2013-03-05 19:13:00,33.3,27.0,29.96,ESE,105,1.0,2.0,78,0.00,,,0.00,weatherlink.com 1.10,2013-03-06 00:13:00,
2013-03-05 19:28:00,32.8,28.0,29.96,ESE,105,1.0,2.0,81,0.00,,,0.00,weatherlink.com 1.10,2013-03-06 00:28:00,
2013-03-05 19:43:00,32.2,27.0,29.95,ESE,105,2.0,3.0,82,0.00,,,0.00,weatherlink.com 1.10,2013-03-06 00:43:00,
2013-03-05 19:58:00,31.6,27.0,29.95,East,98,1.0,2.0,83,0.00,,,0.00,weatherlink.com 1.10,2013-03-06 00:58:00,
2013-03-05 20:13:00,31.3,27.0,29.95,East,98,0.0,2.0,84,0.00,,,0.00,weatherlink.com 1.10,2013-03-06 01:13:00,
2013-03-05 20:28:00,31.0,27.0,29.96,East,92,0.0,2.0,84,0.00,,,0.00,weatherlink.com 1.10,2013-03-06 01:28:00,
2013-03-05 20:43:00,30.9,27.0,29.96,East,92,0.0,2.0,84,0.00,,,0.00,weatherlink.com 1.10,2013-03-06 01:43:00,
2013-03-05 21:13:00,30.4,26.0,29.95,East,92,0.0,2.0,85,0.00,,,0.00,weatherlink.com 1.10,2013-03-06 02:13:00,
2013-03-05 21:28:00,30.3,27.0,29.95,East,92,0.0,2.0,86,0.00,,,0.00,weatherlink.com 1.10,2013-03-06 02:28:00,
2013-03-05 21:43:00,30.2,27.0,29.94,East,92,0.0,2.0,87,0.00,,,0.00,weatherlink.com 1.10,2013-03-06 02:43:00,
2013-03-05 21:58:00,30.9,29.0,29.94,East,101,0.0,5.0,92,0.00,,,0.00,weatherlink.com 1.10,2013-03-06 02:58:00,
2013-03-05 22:13:00,34.6,30.0,29.94,ESE,120,2.0,6.0,82,0.00,,,0.00,weatherlink.com 1.10,2013-03-06 03:13:00,
2013-03-05 22:28:00,37.0,29.0,29.93,SSE,160,2.0,10.0,74,0.00,,,0.00,weatherlink.com 1.10,2013-03-06 03:28:00,
2013-03-05 22:43:00,37.0,29.0,29.92,East,97,0.0,7.0,72,0.00,,,0.00,weatherlink.com 1.10,2013-03-06 03:43:00,
2013-03-05 22:58:00,36.8,29.0,29.93,SSE,157,2.0,6.0,72,0.00,,,0.00,weatherlink.com 1.10,2013-03-06 03:58:00,
2013-03-05 23:13:00,36.2,28.0,29.93,East,97,0.0,3.0,73,0.00,,,0.00,weatherlink.com 1.10,2013-03-06 04:13:00,
2013-03-05 23:28:00,35.9,28.0,29.92,East,87,0.0,3.0,73,0.00,,,0.00,weatherlink.com 1.10,2013-03-06 04:28:00,
2013-03-05 23:43:00,35.7,28.0,29.92,ENE,76,0.0,5.0,73,0.00,,,0.00,weatherlink.com 1.10,2013-03-06 04:43:00,
2013-03-05 23:58:00,35.7,28.0,29.92,East,90,5.0,6.0,74,0.00,,,0.00,weatherlink.com 1.10,2013-03-06 04:58:00,